Theta_e
280 280 280 281 281 280 280 281 283 285 288 291 297 302 303 304 306 305 305 303 303 302 302 300 301 300 297 297 297 298 299 304 303 293 295 294 295 295 294 297 295 294 294
278 279 279 279 280 280 280 280 281 282 285 287 291 297 299 299 300 301 300 300 300 299 299 298 298 298 296 297 297 297 296 296 301 296 293 292 294 295 295 294 293 293 294
276 277 278 278 278 279 279 280 281 281 283 284 286 290 295 296 297 298 299 298 299 299 298 296 297 295 294 293 294 296 297 292 296 296 290 292 291 293 293 294 294 292 292
275 275 275 275 276 278 279 280 281 281 281 282 283 285 288 290 291 293 296 297 298 299 298 297 297 295 296 293 294 294 292 291 294 294 292 290 291 290 293 291 289 291 291
274 274 274 274 275 276 276 278 280 280 281 282 281 282 282 286 287 289 292 295 296 297 298 298 299 295 292 293 293 293 293 291 291 291 290 289 287 286 287 291 291 289 286
273 273 273 273 274 274 274 275 276 278 279 280 281 280 280 282 287 288 290 292 292 293 294 295 296 289 290 292 292 293 293 292 291 292 291 289 287 289 290 289 289 287 287
273 272 272 272 272 273 273 273 273 274 276 277 279 280 279 280 285 287 286 289 290 289 290 292 290 291 290 293 292 292 292 293 294 293 290 289 288 289 288 286 287 288 291
272 271 271 270 270 271 272 271 272 272 272 274 276 278 279 280 283 285 284 283 286 287 287 288 287 287 289 288 288 288 288 289 291 291 293 292 293 290 289 288 287 283 280
270 269 269 269 269 269 269 270 271 271 271 272 274 276 277 278 281 283 283 282 282 284 285 286 286 287 287 289 287 287 287 287 290 292 291 293 291 291 288 287 285 286 284
268 268 268 267 267 267 269 268 269 270 270 271 272 274 276 275 278 282 282 282 281 281 283 283 285 285 287 289 287 287 286 287 287 286 287 288 289 289 288 288 287 287 285
267 267 266 266 266 267 268 268 268 268 268 269 270 272 274 274 274 279 281 280 280 280 281 281 282 285 287 289 290 288 288 287 288 287 286 286 286 286 286 286 286 289 286
266 265 264 264 265 267 266 266 266 266 266 268 269 270 273 273 274 276 278 279 280 278 279 281 282 284 287 289 288 289 290 288 287 287 286 285 285 285 284 283 281 280 280
263 261 262 263 263 264 264 264 264 265 265 266 267 268 269 271 272 274 276 277 278 278 279 280 281 283 285 287 289 290 286 287 286 285 286 285 285 284 278 276 276 276 275
260 261 261 261 262 263 264 264 264 264 264 265 266 267 268 269 270 272 274 275 276 277 278 279 280 281 284 286 285 287 287 287 287 287 287 287 281 279 278 279 277 278 277
260 261 261 262 262 262 263 263 263 264 265 265 266 267 267 266 269 272 273 273 274 276 276 276 276 279 282 283 285 285 285 285 285 287 286 282 282 281 279 278 278 278 280
260 261 261 261 261 261 261 262 264 265 266 267 268 268 267 269 270 271 273 273 274 275 273 272 272 275 277 278 279 284 284 284 285 285 285 283 281 281 279 278 278 278 279
257 259 260 259 260 260 260 259 259 262 264 264 265 266 267 268 269 270 271 272 272 272 268 269 270 271 273 275 275 277 279 284 284 284 284 283 282 281 278 278 277 279 279
255 255 257 258 259 259 259 259 258 258 257 259 262 263 264 266 267 268 269 269 264 265 265 266 267 269 269 270 272 272 275 276 283 283 283 283 282 281 279 278 279 279 279
256 258 258 258 258 257 257 257 257 257 257 257 259 260 261 262 264 265 265 262 261 261 262 263 264 265 266 267 267 268 270 273 274 283 283 282 281 281 280 280 280 279 279
254 253 254 256 257 257 257 256 256 257 257 257 257 258 259 258 258 260 261 261 260 261 261 261 262 263 263 264 265 266 267 270 271 273 283 282 281 281 280 280 280 279 278
256 256 255 255 256 256 256 256 256 256 256 256 257 258 262 262 261 261 260 259 259 259 260 260 261 261 262 262 263 264 265 266 269 272 273 283 282 280 281 280 280 279 279
256 256 256 255 256 256 256 256 256 256 256 256 257 258 261 258 258 258 258 258 259 259 259 259 259 260 260 261 261 262 263 264 267 271 269 271 280 282 281 280 279 279 278
256 256 256 256 256 255 255 256 256 256 256 257 257 257 257 257 257 257 257 258 258 258 258 258 258 258 259 260 261 262 262 263 266 266 266 267 269 276 281 280 279 278 278
255 255 255 255 255 255 256 256 256 256 255 256 257 257 257 257 257 257 257 257 257 258 258 257 257 257 257 258 260 261 262 263 264 263 264 264 266 268 273 280 279 278 277
254 253 254 254 255 255 255 256 256 256 256 257 257 257 258 257 257 257 258 257 256 256 256 256 257 257 257 256 257 258 259 260 260 261 262 263 263 266 267 271 279 278 277
254 254 254 255 255 255 255 255 256 256 256 257 257 257 257 257 257 258 257 256 256 255 255 256 256 256 256 257 257 258 257 259 259 260 261 262 263 265 267 270 277 278 277
Wind_Speed
18 19 20 19 17 16 16 18 18 19 19 17 13 5 1 5 8 9 9 10 12 11 11 13 14 12 9 9 9 6 4 4 4 2 2 4 7 9 7 8 8 8 7
16 17 18 19 20 17 18 19 19 19 19 18 17 9 1 3 3 6 7 8 11 10 11 9 11 8 11 10 9 9 8 5 4 5 3 4 5 10 10 11 7 6 7
14 15 16 18 19 20 18 19 19 19 19 19 18 16 9 3 2 2 5 7 9 9 11 11 11 11 9 6 5 9 7 4 3 4 5 2 2 6 7 6 8 7 6
13 14 15 17 17 18 19 18 18 17 18 19 18 18 14 15 12 6 2 3 6 7 8 10 10 12 13 12 11 11 6 6 5 4 4 4 3 4 5 6 6 5 5
12 13 14 15 16 17 18 19 18 18 16 16 17 15 18 15 14 13 5 3 4 7 7 9 9 10 12 12 9 10 10 9 7 6 4 3 4 4 8 6 4 4 2
10 12 13 14 15 15 17 18 19 19 17 16 14 15 16 12 29 28 15 4 3 4 5 6 7 6 8 13 17 15 15 13 11 9 7 6 6 5 6 6 5 4 4
9 10 12 14 15 15 15 17 18 18 19 18 17 17 16 15 32 31 25 8 4 2 3 3 3 4 6 8 13 13 14 18 18 14 12 9 8 9 10 7 4 3 3
8 9 11 13 14 14 14 15 16 15 15 15 15 16 14 13 29 31 26 14 10 4 2 2 4 5 6 6 7 9 9 10 10 8 11 9 7 9 10 6 7 7 5
6 8 9 11 13 14 14 14 13 13 13 14 13 14 14 13 26 28 22 13 13 12 8 6 4 4 6 11 7 8 9 9 7 8 2 5 12 17 14 9 6 6 3
6 7 9 10 11 12 13 13 13 12 11 11 13 12 13 13 21 24 21 10 12 10 10 10 14 9 10 9 7 8 9 9 8 5 5 4 6 11 19 5 10 9 4
4 6 9 9 11 11 11 11 11 12 12 11 11 11 11 11 14 21 22 11 10 9 9 9 8 20 18 11 12 7 8 6 10 7 6 6 6 5 4 3 4 3 4
4 7 9 9 9 9 11 10 11 11 11 11 11 10 8 10 16 17 21 19 17 10 10 9 11 23 20 13 9 12 12 10 6 7 8 8 7 6 4 5 6 7 6
6 8 8 9 9 8 10 9 8 9 8 9 9 9 9 8 9 18 19 20 18 11 9 16 23 23 20 10 11 12 9 6 7 8 9 8 7 6 8 7 7 11 11
7 9 8 8 8 8 7 7 7 6 7 8 9 9 9 9 9 9 10 10 14 12 15 11 17 18 15 10 4 6 6 7 8 7 7 7 7 7 6 4 5 5 5
7 7 8 6 7 8 7 7 7 7 8 9 9 10 10 10 9 19 16 11 10 12 15 9 9 9 8 8 5 2 3 5 6 6 6 8 7 8 7 6 5 6 4
7 6 5 6 6 6 7 8 10 12 14 16 17 13 10 17 21 22 21 21 21 21 9 8 8 8 7 8 8 6 1 4 4 5 7 8 8 9 9 7 6 6 7
6 6 5 5 5 6 6 7 9 9 14 14 14 15 17 18 20 21 21 21 20 16 7 7 7 7 8 6 8 8 8 3 3 4 6 8 8 9 11 9 7 7 7
6 7 6 5 5 5 6 7 7 8 10 9 9 13 15 16 18 19 19 17 8 7 5 6 7 7 8 8 7 8 8 9 3 5 5 7 9 10 10 10 9 9 8
5 5 4 5 5 6 6 7 7 8 9 10 10 9 9 16 18 15 13 6 7 6 6 6 6 7 7 8 8 7 8 8 9 4 5 6 7 9 10 9 9 11 10
5 8 7 5 5 6 6 7 7 7 8 8 8 8 7 7 7 8 6 6 7 7 7 7 6 7 7 7 7 7 7 7 8 8 3 5 6 7 8 11 10 11 10
4 5 6 6 6 6 6 6 7 7 8 8 9 9 15 10 9 9 8 7 7 7 7 6 6 6 6 7 7 7 7 7 7 8 7 4 6 7 6 7 9 9 9
5 6 6 6 6 6 6 6 7 8 8 9 10 9 14 8 8 8 9 8 8 7 6 7 6 6 6 6 7 7 7 7 7 6 7 8 5 6 6 7 8 9 10
6 7 7 7 7 8 7 7 7 8 9 10 10 9 7 7 8 9 9 9 8 8 7 7 7 7 6 7 7 8 7 7 6 6 7 7 8 8 6 7 8 8 9
6 7 8 7 7 7 8 8 8 9 10 10 10 9 9 8 9 10 9 9 8 9 8 7 7 9 7 8 7 7 7 7 6 6 9 7 7 9 9 6 8 10 9
5 6 7 7 8 8 9 8 9 10 10 10 10 10 10 10 10 10 9 8 8 8 9 8 7 10 12 12 11 11 11 12 9 8 7 8 9 10 8 9 6 8 10
6 7 7 7 8 8 8 9 9 10 10 10 10 10 10 10 10 10 9 8 8 8 9 7 9 14 14 11 13 13 13 13 11 11 8 8 8 7 6 8 10 7 10
Wind_Direction
353 351 350 349 349 345 346 338 339 339 340 335 331 326 137 167 187 188 192 182 184 187 194 193 195 184 188 191 210 196 161 198 176 126 116 146 179 193 168 196 171 188 184
346 349 351 348 350 352 351 346 345 346 349 346 339 345 270 186 176 192 176 177 185 184 188 182 192 182 194 196 201 213 205 185 149 152 154 156 189 199 184 186 185 197 207
343 344 349 352 350 350 351 349 349 352 352 354 348 3 355 29 87 193 188 185 192 191 187 187 189 180 189 186 190 201 200 184 150 141 148 128 119 184 178 188 194 198 213
339 343 346 346 347 345 347 352 354 354 358 2 357 9 358 26 19 4 296 202 211 207 196 201 191 190 197 187 191 205 180 178 179 139 142 142 153 165 177 176 189 202 194
339 341 344 341 341 344 345 348 353 0 357 357 5 1 6 18 14 359 337 283 236 225 217 215 207 200 197 191 177 196 180 190 185 178 141 141 158 165 193 172 169 151 171
334 338 340 342 342 346 344 345 347 350 356 358 2 7 4 3 8 9 358 315 256 230 222 217 220 198 206 195 198 197 194 192 192 198 173 186 179 175 154 167 144 152 201
329 336 340 342 340 343 344 344 349 345 343 352 353 357 3 3 9 11 3 350 313 255 249 222 207 222 207 212 213 209 203 212 203 191 189 191 165 181 157 158 169 149 151
323 332 337 339 337 337 339 343 342 344 339 340 343 347 353 2 6 11 9 1 358 347 315 263 235 227 211 194 191 201 208 216 214 216 204 201 177 162 173 175 158 109 87
314 323 333 334 331 333 333 338 335 338 335 334 335 340 347 350 0 11 11 5 1 2 0 351 316 283 260 222 198 198 203 214 202 206 211 180 150 166 152 128 149 148 140
310 319 324 324 323 323 325 328 328 329 324 325 327 332 340 344 349 5 12 4 1 355 357 0 3 348 305 258 214 201 204 200 180 137 122 129 133 175 161 174 160 169 122
298 310 317 320 317 313 316 323 321 325 324 322 323 325 335 347 342 354 4 5 2 348 347 347 344 340 330 284 233 213 216 160 186 158 141 130 119 180 156 99 98 141 130
306 311 315 314 312 312 315 312 320 320 321 321 324 323 333 342 339 343 352 357 356 348 342 336 332 333 328 305 259 219 222 171 170 167 165 151 166 167 155 103 89 75 47
310 304 302 305 305 308 309 311 313 319 318 321 321 321 328 338 332 335 340 345 345 345 336 330 331 329 325 310 275 233 196 175 181 184 180 175 170 134 123 103 76 92 74
295 300 303 301 308 305 307 308 310 310 317 317 313 316 320 327 326 329 329 332 334 335 336 332 324 321 320 310 295 261 186 184 186 193 185 151 118 142 145 151 133 153 111
289 290 295 298 304 307 303 305 300 303 298 303 309 308 311 314 315 316 318 318 320 319 321 323 326 326 328 346 320 250 184 178 182 176 168 150 159 161 159 159 142 155 178
290 290 301 301 305 306 308 309 302 296 303 304 301 302 306 304 309 309 314 315 313 313 312 314 312 317 327 337 340 326 210 189 185 176 163 164 165 172 162 167 153 179 171
276 288 288 286 297 299 309 310 311 314 305 300 306 313 314 306 310 315 314 312 312 321 309 307 311 313 314 335 339 337 341 224 168 178 177 171 166 169 163 170 169 179 179
264 266 270 275 281 289 299 299 300 302 310 308 311 313 310 316 313 310 311 321 328 326 314 306 310 320 320 321 337 338 336 339 229 189 183 177 170 168 172 179 180 178 172
260 259 264 276 275 282 288 285 287 292 293 298 311 315 318 314 316 312 322 315 307 305 309 304 309 310 314 321 325 327 328 328 331 251 189 182 181 173 177 179 182 181 172
248 251 254 270 279 277 273 275 282 283 286 291 298 302 315 311 311 310 302 298 298 297 299 297 303 301 303 306 313 315 315 321 331 339 255 185 185 186 186 176 178 177 182
264 272 269 273 267 269 269 270 276 280 282 286 286 291 290 295 303 297 296 291 286 283 287 287 287 290 292 298 301 302 306 310 316 327 330 266 183 189 188 187 177 177 174
268 273 273 267 271 266 266 271 272 274 278 281 286 286 293 294 284 281 281 281 278 275 274 276 275 273 278 283 291 291 295 300 306 323 342 336 299 190 183 179 180 178 174
259 267 270 271 270 276 271 265 270 273 276 276 281 285 281 273 272 273 275 275 275 275 270 264 266 267 266 265 266 272 278 283 300 330 321 328 329 322 192 184 179 178 179
265 267 271 276 277 278 278 280 281 273 270 275 277 276 277 274 271 269 267 267 264 264 267 264 257 259 264 256 261 263 269 276 286 295 301 304 306 316 323 197 182 182 180
259 264 267 273 276 277 281 279 279 277 274 272 274 273 275 274 272 271 272 265 257 257 258 257 259 259 258 253 251 257 263 274 277 281 284 281 279 289 296 306 200 179 176
258 262 268 274 273 272 274 278 276 275 272 272 270 269 270 270 268 270 266 256 253 250 250 250 253 258 258 257 254 252 256 261 258 254 252 257 261 265 269 282 272 185 179